This is the latest recevied weather packets stored in our database for station/object AD8BW. If no packets are shown the sender has not sent any weather packets the latest 10 day(s).
| Time | Temp. | Humidity | Pressure | Rain* | Wind** | Luminosity | Snow |
|---|---|---|---|---|---|---|---|
| 1777907611 | 17.78° C | 57% | 1002.7 hPa | 0 mm | - | 383 W/m² | - |
| 1777907012 | 17.22° C | 57% | 1002.8 hPa | 0 mm | - | 77 W/m² | - |
| 1777906411 | 17.22° C | 59% | 1002.8 hPa | 0 mm | - | 258 W/m² | - |
| 1777905810 | 16.67° C | 60% | 1002.9 hPa | 0 mm | - | 113 W/m² | - |
| 1777905212 | 16.11° C | 61% | 1002.8 hPa | 0 mm | - | 585 W/m² | - |
| 1777904610 | 16.11° C | 61% | 1003 hPa | 0 mm | - | 612 W/m² | - |
| 1777904012 | 15.56° C | 63% | 1003 hPa | 0 mm | - | 359 W/m² | - |
| 1777903408 | 15° C | 64% | 1003.1 hPa | 0 mm | - | 448 W/m² | - |
| 1777902803 | 14.44° C | 66% | 1003.2 hPa | 0 mm | - | 260 W/m² | - |
| 1777902202 | 14.44° C | 66% | 1003.3 hPa | 0 mm | - | 100 W/m² | - |
| 1777901604 | 13.89° C | 68% | 1003.4 hPa | 0 mm | - | 81 W/m² | - |
| 1777901005 | 13.33° C | 69% | 1003.4 hPa | 0 mm | - | 102 W/m² | - |
| 1777900403 | 12.78° C | 70% | 1003.6 hPa | 0 mm | - | 67 W/m² | - |
| 1777899805 | 12.78° C | 71% | 1003.6 hPa | 0 mm | - | 183 W/m² | - |
| 1777899206 | 12.22° C | 72% | 1003.7 hPa | 0 mm | - | 156 W/m² | - |
| 1777898612 | 11.67° C | 73% | 1003.8 hPa | 0 mm | - | 93 W/m² | - |
| 1777898001 | 11.11° C | 74% | 1003.8 hPa | 0 mm | - | 114 W/m² | - |
| 1777897399 | 11.11° C | 75% | 1003.8 hPa | 0 mm | - | 98 W/m² | - |
| 1777896797 | 10.56° C | 76% | 1003.8 hPa | 0 mm | - | 79 W/m² | - |
| 1777896197 | 10.56° C | 76% | 1003.7 hPa | 0 mm | - | 86 W/m² | - |
| 1777895596 | 10° C | 77% | 1003.9 hPa | 0 mm | - | 56 W/m² | - |
| 1777894996 | 10° C | 78% | 1003.8 hPa | 0 mm | - | 104 W/m² | - |
| 1777894396 | 9.44° C | 79% | 1003.7 hPa | 0 mm | - | 49 W/m² | - |
| 1777893801 | 9.44° C | 79% | 1003.8 hPa | 0 mm | - | 54 W/m² | - |
| 1777893198 | 8.89° C | 80% | 1003.7 hPa | 0 mm | - | 32 W/m² | - |
* Rain latest hour (hover to see other rain measurements)
** Current wind speed in m/s (hover to see current wind gust speed)